Year,Month,Day,Hour,Minute,Value (Times are PST for temperature in C)
2019,03,20,00,00,13.70
2019,03,20,00,01,13.70
2019,03,20,00,02,13.70
2019,03,20,00,03,13.50
2019,03,20,00,04,13.40
2019,03,20,00,05,13.20
2019,03,20,00,06,13.10
2019,03,20,00,07,13.00
2019,03,20,00,08,13.00
2019,03,20,00,09,12.90
2019,03,20,00,10,12.90
2019,03,20,00,11,12.90
2019,03,20,00,12,13.00
2019,03,20,00,13,13.10
2019,03,20,00,14,13.10
2019,03,20,00,15,13.20
2019,03,20,00,16,13.20
2019,03,20,00,17,13.10
2019,03,20,00,18,13.20
2019,03,20,00,19,13.20
2019,03,20,00,20,13.30
2019,03,20,00,21,13.30
2019,03,20,00,22,13.40
2019,03,20,00,23,13.50
2019,03,20,00,24,13.50
2019,03,20,00,25,13.40
2019,03,20,00,26,13.40
2019,03,20,00,27,13.30
2019,03,20,00,28,13.30
2019,03,20,00,29,13.40
2019,03,20,00,30,13.50
2019,03,20,00,31,13.50
2019,03,20,00,32,13.50
2019,03,20,00,33,13.60
2019,03,20,00,34,13.60
2019,03,20,00,35,13.60
2019,03,20,00,36,13.70
2019,03,20,00,37,13.60
2019,03,20,00,38,13.60
2019,03,20,00,39,13.60
2019,03,20,00,40,13.50
2019,03,20,00,41,13.50
2019,03,20,00,42,13.50
2019,03,20,00,43,13.40
2019,03,20,00,44,13.40
2019,03,20,00,45,13.50
2019,03,20,00,46,13.60
2019,03,20,00,47,13.70
2019,03,20,00,48,13.70
2019,03,20,00,49,13.70
2019,03,20,00,50,13.70
2019,03,20,00,51,13.70
2019,03,20,00,52,13.60
2019,03,20,00,53,13.70
2019,03,20,00,54,13.80
2019,03,20,00,55,13.80
2019,03,20,00,56,13.90
2019,03,20,00,57,13.80
2019,03,20,00,58,13.80
2019,03,20,00,59,13.60
2019,03,20,01,00,13.50
2019,03,20,01,01,13.30
2019,03,20,01,02,13.10
2019,03,20,01,03,12.90
2019,03,20,01,04,12.80
2019,03,20,01,05,12.70
2019,03,20,01,06,12.70
2019,03,20,01,07,12.80
2019,03,20,01,08,12.80
2019,03,20,01,09,12.90
2019,03,20,01,10,13.00
2019,03,20,01,11,13.10
2019,03,20,01,12,13.20
2019,03,20,01,13,13.20
2019,03,20,01,14,13.20
2019,03,20,01,15,13.20
2019,03,20,01,16,13.20
2019,03,20,01,17,13.20
2019,03,20,01,18,13.20
2019,03,20,01,19,13.30
2019,03,20,01,20,13.30
2019,03,20,01,21,13.30
2019,03,20,01,22,13.30
2019,03,20,01,23,13.30
2019,03,20,01,24,13.30
2019,03,20,01,25,13.30
2019,03,20,01,26,13.30
2019,03,20,01,27,13.20
2019,03,20,01,28,13.20
2019,03,20,01,29,13.10
2019,03,20,01,30,13.10
2019,03,20,01,31,13.10
2019,03,20,01,32,13.10
2019,03,20,01,33,13.10
2019,03,20,01,34,13.00
2019,03,20,01,35,12.90
2019,03,20,01,36,12.80
2019,03,20,01,37,12.80
2019,03,20,01,38,12.80
2019,03,20,01,39,12.70
2019,03,20,01,40,12.70
2019,03,20,01,41,12.60
2019,03,20,01,42,12.60
2019,03,20,01,43,12.60
2019,03,20,01,44,12.60
2019,03,20,01,45,12.60
2019,03,20,01,46,12.50
2019,03,20,01,47,12.60
2019,03,20,01,48,12.80
2019,03,20,01,49,13.00
2019,03,20,01,50,13.10
2019,03,20,01,51,13.20
2019,03,20,01,52,13.30
2019,03,20,01,53,13.40
2019,03,20,01,54,13.40
2019,03,20,01,55,13.40
2019,03,20,01,56,13.50
2019,03,20,01,57,13.60
2019,03,20,01,58,13.50
2019,03,20,01,59,13.40
2019,03,20,02,00,13.40
2019,03,20,02,01,13.40
2019,03,20,02,02,13.30
2019,03,20,02,03,13.30
2019,03,20,02,04,13.20
2019,03,20,02,05,13.10
2019,03,20,02,06,13.00
2019,03,20,02,07,12.90
2019,03,20,02,08,12.80
2019,03,20,02,09,12.80
2019,03,20,02,10,12.80
2019,03,20,02,11,12.80
2019,03,20,02,12,12.70
2019,03,20,02,13,12.70
2019,03,20,02,14,12.70
2019,03,20,02,15,12.60
2019,03,20,02,16,12.50
2019,03,20,02,17,12.50
2019,03,20,02,18,12.40
2019,03,20,02,19,12.50
2019,03,20,02,20,12.50
2019,03,20,02,21,12.60
2019,03,20,02,22,12.50
2019,03,20,02,23,12.40
2019,03,20,02,24,12.40
2019,03,20,02,25,12.30
2019,03,20,02,26,12.30
2019,03,20,02,27,12.30
2019,03,20,02,28,12.20
2019,03,20,02,29,12.20
2019,03,20,02,30,12.20
2019,03,20,02,31,12.20
2019,03,20,02,32,12.20
2019,03,20,02,33,12.10
2019,03,20,02,34,12.10
2019,03,20,02,35,12.20
2019,03,20,02,36,12.10
2019,03,20,02,37,12.10
2019,03,20,02,38,12.20
2019,03,20,02,39,12.30
2019,03,20,02,40,12.50
2019,03,20,02,41,12.50
2019,03,20,02,42,12.60
2019,03,20,02,43,12.70
2019,03,20,02,44,12.70
2019,03,20,02,45,12.80
2019,03,20,02,46,12.70
2019,03,20,02,47,12.70
2019,03,20,02,48,12.60
2019,03,20,02,49,12.70
2019,03,20,02,50,12.80
2019,03,20,02,51,12.80
2019,03,20,02,52,12.80
2019,03,20,02,53,12.90
2019,03,20,02,54,13.00
2019,03,20,02,55,13.00
2019,03,20,02,56,13.20
2019,03,20,02,57,13.20
2019,03,20,02,58,13.30
2019,03,20,02,59,13.30
2019,03,20,03,00,13.40
2019,03,20,03,01,13.40
2019,03,20,03,02,13.30
2019,03,20,03,03,13.30
2019,03,20,03,04,13.30
2019,03,20,03,05,13.30
2019,03,20,03,06,13.30
2019,03,20,03,07,13.30
2019,03,20,03,08,13.30
2019,03,20,03,09,13.30
2019,03,20,03,10,13.20
2019,03,20,03,11,13.10
2019,03,20,03,12,13.00
2019,03,20,03,13,12.80
2019,03,20,03,14,12.70
2019,03,20,03,15,12.70
2019,03,20,03,16,12.60
2019,03,20,03,17,12.50
2019,03,20,03,18,12.40
2019,03,20,03,19,12.40
2019,03,20,03,20,12.40
2019,03,20,03,21,12.40
2019,03,20,03,22,12.30
2019,03,20,03,23,12.30
2019,03,20,03,24,12.30
2019,03,20,03,25,12.30
2019,03,20,03,26,12.30
2019,03,20,03,27,12.40
2019,03,20,03,28,12.40
2019,03,20,03,29,12.40
2019,03,20,03,30,12.40
2019,03,20,03,31,12.50
2019,03,20,03,32,12.50
2019,03,20,03,33,12.50
2019,03,20,03,34,12.50
2019,03,20,03,35,12.50
2019,03,20,03,36,12.50
2019,03,20,03,37,12.50
2019,03,20,03,38,12.50
2019,03,20,03,39,12.50
2019,03,20,03,40,12.50
2019,03,20,03,41,12.60
2019,03,20,03,42,12.60
2019,03,20,03,43,12.70
2019,03,20,03,44,12.60
2019,03,20,03,45,12.50
2019,03,20,03,46,12.50
2019,03,20,03,47,12.40
2019,03,20,03,48,12.40
2019,03,20,03,49,12.40
2019,03,20,03,50,12.40
2019,03,20,03,51,12.40
2019,03,20,03,52,12.30
2019,03,20,03,53,12.30
2019,03,20,03,54,12.20
2019,03,20,03,55,12.10
2019,03,20,03,56,12.00
2019,03,20,03,57,12.00
2019,03,20,03,58,11.90
2019,03,20,03,59,11.80
2019,03,20,04,00,11.80
2019,03,20,04,01,11.70
2019,03,20,04,02,11.70
2019,03,20,04,03,11.60
2019,03,20,04,04,11.60
2019,03,20,04,05,11.50
2019,03,20,04,06,11.50
2019,03,20,04,07,11.50
2019,03,20,04,08,11.40
2019,03,20,04,09,11.40
2019,03,20,04,10,11.40
2019,03,20,04,11,11.40
2019,03,20,04,12,11.30
2019,03,20,04,13,11.30
2019,03,20,04,14,11.30
2019,03,20,04,15,11.30
2019,03,20,04,16,11.40
2019,03,20,04,17,11.40
2019,03,20,04,18,11.40
2019,03,20,04,19,11.40
2019,03,20,04,20,11.40
2019,03,20,04,21,11.50
2019,03,20,04,22,11.50
2019,03,20,04,23,11.60
2019,03,20,04,24,11.60
2019,03,20,04,25,11.60
2019,03,20,04,26,11.60
2019,03,20,04,27,11.50
2019,03,20,04,28,11.50
2019,03,20,04,29,11.40
2019,03,20,04,30,11.40
2019,03,20,04,31,11.30
2019,03,20,04,32,11.30
2019,03,20,04,33,11.30
2019,03,20,04,34,11.30
2019,03,20,04,35,11.40
2019,03,20,04,36,11.40
2019,03,20,04,37,11.40
2019,03,20,04,38,11.40
2019,03,20,04,39,11.40
2019,03,20,04,40,11.40
2019,03,20,04,41,11.40
2019,03,20,04,42,11.40
2019,03,20,04,43,11.40
2019,03,20,04,44,11.40
2019,03,20,04,45,11.40
2019,03,20,04,46,11.40
2019,03,20,04,47,11.40
2019,03,20,04,48,11.40
2019,03,20,04,49,11.40
2019,03,20,04,50,11.40
2019,03,20,04,51,11.50
2019,03,20,04,52,11.50
2019,03,20,04,53,11.50
2019,03,20,04,54,11.50
2019,03,20,04,55,11.50
2019,03,20,04,56,11.40
2019,03,20,04,57,11.40
2019,03,20,04,58,11.30
2019,03,20,04,59,11.20
2019,03,20,05,00,11.20
2019,03,20,05,01,11.30
2019,03,20,05,02,11.20
2019,03,20,05,03,11.20
2019,03,20,05,04,11.20
2019,03,20,05,05,11.10
2019,03,20,05,06,11.10
2019,03,20,05,07,11.00
2019,03,20,05,08,11.00
2019,03,20,05,09,10.90
2019,03,20,05,10,10.90
2019,03,20,05,11,10.90
2019,03,20,05,12,10.90
2019,03,20,05,13,10.90
2019,03,20,05,14,11.00
2019,03,20,05,15,11.00
2019,03,20,05,16,11.10
2019,03,20,05,17,11.10
2019,03,20,05,18,11.10
2019,03,20,05,19,11.10
2019,03,20,05,20,11.00
2019,03,20,05,21,11.00
2019,03,20,05,22,10.90
2019,03,20,05,23,10.90
2019,03,20,05,24,10.90
2019,03,20,05,25,10.80
2019,03,20,05,26,10.80
2019,03,20,05,27,10.80
2019,03,20,05,28,10.80
2019,03,20,05,29,10.90
2019,03,20,05,30,11.00
2019,03,20,05,31,11.00
2019,03,20,05,32,11.00
2019,03,20,05,33,11.00
2019,03,20,05,34,11.10
2019,03,20,05,35,11.10
2019,03,20,05,36,11.10
2019,03,20,05,37,11.20
2019,03,20,05,38,11.20
2019,03,20,05,39,11.20
2019,03,20,05,40,11.20
2019,03,20,05,41,11.20
2019,03,20,05,42,11.20
2019,03,20,05,43,11.30
2019,03,20,05,44,11.30
2019,03,20,05,45,11.30
2019,03,20,05,46,11.30
2019,03,20,05,47,11.40
2019,03,20,05,48,11.40
2019,03,20,05,49,11.40
2019,03,20,05,50,11.40
2019,03,20,05,51,11.40
2019,03,20,05,52,11.30
2019,03,20,05,53,11.30
2019,03,20,05,54,11.30
2019,03,20,05,55,11.30
2019,03,20,05,56,11.30
2019,03,20,05,57,11.20
2019,03,20,05,58,11.20
2019,03,20,05,59,11.20
2019,03,20,06,00,11.10
2019,03,20,06,01,11.10
2019,03,20,06,02,11.00
2019,03,20,06,03,10.90
2019,03,20,06,04,10.90
2019,03,20,06,05,10.90
2019,03,20,06,06,10.90
2019,03,20,06,07,10.90
2019,03,20,06,08,10.90
2019,03,20,06,09,10.90
2019,03,20,06,10,10.90
2019,03,20,06,11,10.90
2019,03,20,06,12,10.90
2019,03,20,06,13,10.90
2019,03,20,06,14,10.90
2019,03,20,06,15,10.90
2019,03,20,06,16,10.90
2019,03,20,06,17,10.90
2019,03,20,06,18,10.90
2019,03,20,06,19,11.00
2019,03,20,06,20,11.00
2019,03,20,06,21,11.00
2019,03,20,06,22,11.00
2019,03,20,06,23,11.10
2019,03,20,06,24,11.10
2019,03,20,06,25,11.10
2019,03,20,06,26,11.10
2019,03,20,06,27,11.10
2019,03,20,06,28,11.10
2019,03,20,06,29,11.20
2019,03,20,06,30,11.20
2019,03,20,06,31,11.20
2019,03,20,06,32,11.20
2019,03,20,06,33,11.20
2019,03,20,06,34,11.20
2019,03,20,06,35,11.10
2019,03,20,06,36,11.10
2019,03,20,06,37,11.00
2019,03,20,06,38,11.00
2019,03,20,06,39,10.90
2019,03,20,06,40,10.90
2019,03,20,06,41,10.80
2019,03,20,06,42,10.80
2019,03,20,06,43,10.80
2019,03,20,06,44,10.80
2019,03,20,06,45,10.80
2019,03,20,06,46,10.70
2019,03,20,06,47,10.70
2019,03,20,06,48,10.80
2019,03,20,06,49,10.80
2019,03,20,06,50,10.80
2019,03,20,06,51,10.80
2019,03,20,06,52,10.70
2019,03,20,06,53,10.70
2019,03,20,06,54,10.70
2019,03,20,06,55,10.70
2019,03,20,06,56,10.70
2019,03,20,06,57,10.70
2019,03,20,06,58,10.80
2019,03,20,06,59,10.80
2019,03,20,07,00,10.90
2019,03,20,07,01,10.90
2019,03,20,07,02,10.90
2019,03,20,07,03,11.00
2019,03,20,07,04,11.00
2019,03,20,07,05,11.00
2019,03,20,07,06,11.10
2019,03,20,07,07,11.10
2019,03,20,07,08,11.20
2019,03,20,07,09,11.20
2019,03,20,07,10,11.20
2019,03,20,07,11,11.20
2019,03,20,07,12,11.30
2019,03,20,07,13,11.30
2019,03,20,07,14,11.30
2019,03,20,07,15,11.40
2019,03,20,07,16,11.50
2019,03,20,07,17,11.50
2019,03,20,07,18,11.60
2019,03,20,07,19,11.60
2019,03,20,07,20,11.60
2019,03,20,07,21,11.60
2019,03,20,07,22,11.70
2019,03,20,07,23,11.70
2019,03,20,07,24,11.70
2019,03,20,07,25,11.80
2019,03,20,07,26,11.80
2019,03,20,07,27,11.80
2019,03,20,07,28,11.70
2019,03,20,07,29,11.70
2019,03,20,07,30,11.80
2019,03,20,07,31,11.80
2019,03,20,07,32,11.90
2019,03,20,07,33,11.90
2019,03,20,07,34,11.90
2019,03,20,07,35,12.00
2019,03,20,07,36,12.00
2019,03,20,07,37,12.10
2019,03,20,07,38,12.10
2019,03,20,07,39,12.10
2019,03,20,07,40,12.20
2019,03,20,07,41,12.20
2019,03,20,07,42,12.20
2019,03,20,07,43,12.20
2019,03,20,07,44,12.20
2019,03,20,07,45,12.20
2019,03,20,07,46,12.20
2019,03,20,07,47,12.20
2019,03,20,07,48,12.20
2019,03,20,07,49,12.20
2019,03,20,07,50,12.20
2019,03,20,07,51,12.10
2019,03,20,07,52,12.10
2019,03,20,07,53,12.10
2019,03,20,07,54,12.10
2019,03,20,07,55,12.10
2019,03,20,07,56,12.10
2019,03,20,07,57,12.10
2019,03,20,07,58,12.10
2019,03,20,07,59,12.10
2019,03,20,08,00,12.10
2019,03,20,08,01,12.10
2019,03,20,08,02,12.10
2019,03,20,08,03,12.10
2019,03,20,08,04,12.20
2019,03,20,08,05,12.20
2019,03,20,08,06,12.20
2019,03,20,08,07,12.20
2019,03,20,08,08,12.20
2019,03,20,08,09,12.10
2019,03,20,08,10,12.10
2019,03,20,08,11,12.10
2019,03,20,08,12,12.10
2019,03,20,08,13,12.10
2019,03,20,08,14,12.10
2019,03,20,08,15,12.20
2019,03,20,08,16,12.20
2019,03,20,08,17,12.20
2019,03,20,08,18,12.30
2019,03,20,08,19,12.30
2019,03,20,08,20,12.30
2019,03,20,08,21,12.30
2019,03,20,08,22,12.30
2019,03,20,08,23,12.30
2019,03,20,08,24,12.30
2019,03,20,08,25,12.30
2019,03,20,08,26,12.40
2019,03,20,08,27,12.50
2019,03,20,08,28,12.60
2019,03,20,08,29,12.60
2019,03,20,08,30,12.70
2019,03,20,08,31,12.80
2019,03,20,08,32,12.80
2019,03,20,08,33,12.90
2019,03,20,08,34,12.90
2019,03,20,08,35,12.90
2019,03,20,08,36,12.90
2019,03,20,08,37,12.90
2019,03,20,08,38,13.00
2019,03,20,08,39,13.00
2019,03,20,08,40,13.10
2019,03,20,08,41,13.10
2019,03,20,08,42,13.10
2019,03,20,08,43,13.10
2019,03,20,08,44,13.10
2019,03,20,08,45,13.20
2019,03,20,08,46,13.20
2019,03,20,08,47,13.30
2019,03,20,08,48,13.30
2019,03,20,08,49,13.30
2019,03,20,08,50,13.40
2019,03,20,08,51,13.40
2019,03,20,08,52,13.50
2019,03,20,08,53,13.50
2019,03,20,08,54,13.60
2019,03,20,08,55,13.70
2019,03,20,08,56,13.80
2019,03,20,08,57,13.90
2019,03,20,08,58,14.00
2019,03,20,08,59,14.00
2019,03,20,09,00,14.10
2019,03,20,09,01,14.10
2019,03,20,09,02,14.20
2019,03,20,09,03,14.10
2019,03,20,09,04,14.10
2019,03,20,09,05,14.20
2019,03,20,09,06,14.20
2019,03,20,09,07,14.30
2019,03,20,09,08,14.40
2019,03,20,09,09,14.50
2019,03,20,09,10,14.60
2019,03,20,09,11,14.70
2019,03,20,09,12,14.70
2019,03,20,09,13,14.70
2019,03,20,09,14,14.80
2019,03,20,09,15,14.90
2019,03,20,09,16,14.90
2019,03,20,09,17,15.00
2019,03,20,09,18,15.10
2019,03,20,09,19,15.20
2019,03,20,09,20,15.30
2019,03,20,09,21,15.30
2019,03,20,09,22,15.40
2019,03,20,09,23,15.50
2019,03,20,09,24,15.50
2019,03,20,09,25,15.60
2019,03,20,09,26,15.70
2019,03,20,09,27,15.70
2019,03,20,09,28,15.70
2019,03,20,09,29,15.70
2019,03,20,09,30,15.80
2019,03,20,09,31,15.80
2019,03,20,09,32,15.90
2019,03,20,09,33,15.90
2019,03,20,09,34,16.00
2019,03,20,09,35,16.00
2019,03,20,09,36,16.10
2019,03,20,09,37,16.10
2019,03,20,09,38,16.10
2019,03,20,09,39,16.10
2019,03,20,09,40,16.20
2019,03,20,09,41,16.20
2019,03,20,09,42,16.20
2019,03,20,09,43,16.30
2019,03,20,09,44,16.30
2019,03,20,09,45,16.30
2019,03,20,09,46,16.40
2019,03,20,09,47,16.40
2019,03,20,09,48,16.30
2019,03,20,09,49,16.30
2019,03,20,09,50,16.30
2019,03,20,09,51,16.30
2019,03,20,09,52,16.40
2019,03,20,09,53,16.50
2019,03,20,09,54,16.60
2019,03,20,09,55,16.60
2019,03,20,09,56,16.70
2019,03,20,09,57,16.70
2019,03,20,09,58,16.70
2019,03,20,09,59,16.70
2019,03,20,10,00,16.70
2019,03,20,10,01,16.70
2019,03,20,10,02,16.70
2019,03,20,10,03,16.60
2019,03,20,10,04,16.60
2019,03,20,10,05,16.50
2019,03,20,10,06,16.60
2019,03,20,10,07,16.60
2019,03,20,10,08,16.60
2019,03,20,10,09,16.60
2019,03,20,10,10,16.70
2019,03,20,10,11,16.70
2019,03,20,10,12,16.80
2019,03,20,10,13,16.80
2019,03,20,10,14,16.90
2019,03,20,10,15,16.90
2019,03,20,10,16,16.90
2019,03,20,10,17,16.80
2019,03,20,10,18,16.80
2019,03,20,10,19,16.90
2019,03,20,10,20,16.80
2019,03,20,10,21,16.80
2019,03,20,10,22,16.80
2019,03,20,10,23,16.80
2019,03,20,10,24,16.90
2019,03,20,10,25,16.90
2019,03,20,10,26,17.00
2019,03,20,10,27,17.10
2019,03,20,10,28,17.20
2019,03,20,10,29,17.20
2019,03,20,10,30,17.30
2019,03,20,10,31,17.30
2019,03,20,10,32,17.30
2019,03,20,10,33,17.20
2019,03,20,10,34,17.30
2019,03,20,10,35,17.30
2019,03,20,10,36,17.40
2019,03,20,10,37,17.50
2019,03,20,10,38,17.50
2019,03,20,10,39,17.50
2019,03,20,10,40,17.50
2019,03,20,10,41,17.60
2019,03,20,10,42,17.60
2019,03,20,10,43,17.60
2019,03,20,10,44,17.60
2019,03,20,10,45,17.70
2019,03,20,10,46,17.70
2019,03,20,10,47,17.70
2019,03,20,10,48,17.70
2019,03,20,10,49,17.70
2019,03,20,10,50,17.70
2019,03,20,10,51,17.60
2019,03,20,10,52,17.60
2019,03,20,10,53,17.60
2019,03,20,10,54,17.50
2019,03,20,10,55,17.50
2019,03,20,10,56,17.50
2019,03,20,10,57,17.50
2019,03,20,10,58,17.60
2019,03,20,10,59,17.70
2019,03,20,11,00,17.70
2019,03,20,11,01,17.60
2019,03,20,11,02,17.60
2019,03,20,11,03,17.60
2019,03,20,11,04,17.80
2019,03,20,11,05,17.90
2019,03,20,11,06,17.90
2019,03,20,11,07,17.90
2019,03,20,11,08,17.90
2019,03,20,11,09,17.90
2019,03,20,11,10,17.90
2019,03,20,11,11,17.90
2019,03,20,11,12,17.80
2019,03,20,11,13,17.80
2019,03,20,11,14,17.80
2019,03,20,11,15,17.90
2019,03,20,11,16,17.90
2019,03,20,11,17,17.90
2019,03,20,11,18,17.80
2019,03,20,11,19,17.80
2019,03,20,11,20,17.90
2019,03,20,11,21,17.90
2019,03,20,11,22,17.90
2019,03,20,11,23,18.00
2019,03,20,11,24,18.10
2019,03,20,11,25,18.10
2019,03,20,11,26,18.00
2019,03,20,11,27,17.90
2019,03,20,11,28,17.90
2019,03,20,11,29,17.90
2019,03,20,11,30,17.90
2019,03,20,11,31,18.00
2019,03,20,11,32,18.10
2019,03,20,11,33,18.10
2019,03,20,11,34,18.20
2019,03,20,11,35,18.30
2019,03,20,11,36,18.30
2019,03,20,11,37,18.30
2019,03,20,11,38,18.30
2019,03,20,11,39,18.40
2019,03,20,11,40,18.30
2019,03,20,11,41,18.30
2019,03,20,11,42,18.30
2019,03,20,11,43,18.30
2019,03,20,11,44,18.30
2019,03,20,11,45,18.30
2019,03,20,11,46,18.30
2019,03,20,11,47,18.40
2019,03,20,11,48,18.40
2019,03,20,11,49,18.40
2019,03,20,11,50,18.50
2019,03,20,11,51,18.50
2019,03,20,11,52,18.50
2019,03,20,11,53,18.50
2019,03,20,11,54,18.60
2019,03,20,11,55,18.60
2019,03,20,11,56,18.70
2019,03,20,11,57,18.70
2019,03,20,11,58,18.60
2019,03,20,11,59,18.70
2019,03,20,12,00,18.70
2019,03,20,12,01,18.70
2019,03,20,12,02,18.90
2019,03,20,12,03,18.90
2019,03,20,12,04,18.90
2019,03,20,12,05,18.90
2019,03,20,12,06,18.90
2019,03,20,12,07,18.90
2019,03,20,12,08,18.90
2019,03,20,12,09,18.90
2019,03,20,12,10,18.90
2019,03,20,12,11,18.90
2019,03,20,12,12,18.90
2019,03,20,12,13,19.00
2019,03,20,12,14,19.30
2019,03,20,12,15,19.40
2019,03,20,12,16,19.50
2019,03,20,12,17,19.60
2019,03,20,12,18,19.50
2019,03,20,12,19,19.40
2019,03,20,12,20,19.40
2019,03,20,12,21,19.30
2019,03,20,12,22,19.20
2019,03,20,12,23,19.10
2019,03,20,12,24,19.00
2019,03,20,12,25,18.80
2019,03,20,12,26,18.90
2019,03,20,12,27,18.90
2019,03,20,12,28,19.00
2019,03,20,12,29,19.10
2019,03,20,12,30,19.20
2019,03,20,12,31,19.20
2019,03,20,12,32,19.30
2019,03,20,12,33,19.40
2019,03,20,12,34,19.40
2019,03,20,12,35,19.40
2019,03,20,12,36,19.40
2019,03,20,12,37,19.40
2019,03,20,12,38,19.40
2019,03,20,12,39,19.40
2019,03,20,12,40,19.50
2019,03,20,12,41,19.60
2019,03,20,12,42,19.60
2019,03,20,12,43,19.60
2019,03,20,12,44,19.50
2019,03,20,12,45,19.40
2019,03,20,12,46,19.40
2019,03,20,12,47,19.50
2019,03,20,12,48,19.50
2019,03,20,12,49,19.40
2019,03,20,12,50,19.40
2019,03,20,12,51,19.40
2019,03,20,12,52,19.50
2019,03,20,12,53,19.60
2019,03,20,12,54,19.70
2019,03,20,12,55,19.70
2019,03,20,12,56,19.70
2019,03,20,12,57,19.80
2019,03,20,12,58,19.80
2019,03,20,12,59,19.90
2019,03,20,13,00,20.00
2019,03,20,13,01,20.10
2019,03,20,13,02,20.10
2019,03,20,13,03,20.20
2019,03,20,13,04,20.20
2019,03,20,13,05,20.20
2019,03,20,13,06,20.30
2019,03,20,13,07,20.30
2019,03,20,13,08,20.30
2019,03,20,13,09,20.30
2019,03,20,13,10,20.30
2019,03,20,13,11,20.30
2019,03,20,13,12,20.20
2019,03,20,13,13,20.20
2019,03,20,13,14,20.10
2019,03,20,13,15,20.10
2019,03,20,13,16,20.10
2019,03,20,13,17,20.20
2019,03,20,13,18,20.20
2019,03,20,13,19,20.10
2019,03,20,13,20,20.10
2019,03,20,13,21,20.10
2019,03,20,13,22,20.10
2019,03,20,13,23,20.20
2019,03,20,13,24,20.20
2019,03,20,13,25,20.20
2019,03,20,13,26,20.30
2019,03,20,13,27,20.30
2019,03,20,13,28,20.30
2019,03,20,13,29,20.30
2019,03,20,13,30,20.40
2019,03,20,13,31,20.40
2019,03,20,13,32,20.40
2019,03,20,13,33,20.50
2019,03,20,13,34,20.70
2019,03,20,13,35,20.80
2019,03,20,13,36,20.80
2019,03,20,13,37,20.80
2019,03,20,13,38,20.80
2019,03,20,13,39,20.80
2019,03,20,13,40,20.90
2019,03,20,13,41,20.90
2019,03,20,13,42,20.90
2019,03,20,13,43,20.90
2019,03,20,13,44,21.00
2019,03,20,13,45,21.10
2019,03,20,13,46,21.20
2019,03,20,13,47,21.10
2019,03,20,13,48,21.10
2019,03,20,13,49,21.10
2019,03,20,13,50,21.10
2019,03,20,13,51,21.00
2019,03,20,13,52,21.00
2019,03,20,13,53,21.10
2019,03,20,13,54,21.20
2019,03,20,13,55,21.30
2019,03,20,13,56,21.20
2019,03,20,13,57,21.20
2019,03,20,13,58,21.10
2019,03,20,13,59,21.10
2019,03,20,14,00,21.10
2019,03,20,14,01,21.10
2019,03,20,14,02,21.10
2019,03,20,14,03,21.10
2019,03,20,14,04,21.00
2019,03,20,14,05,21.00
2019,03,20,14,06,21.00
2019,03,20,14,07,21.10
2019,03,20,14,08,21.10
2019,03,20,14,09,21.20
2019,03,20,14,10,21.30
2019,03,20,14,11,21.40
2019,03,20,14,12,21.40
2019,03,20,14,13,21.50
2019,03,20,14,14,21.50
2019,03,20,14,15,21.50
2019,03,20,14,16,21.40
2019,03,20,14,17,21.40
2019,03,20,14,18,21.50
2019,03,20,14,19,21.50
2019,03,20,14,20,21.70
2019,03,20,14,21,21.80
2019,03,20,14,22,21.80
2019,03,20,14,23,21.80
2019,03,20,14,24,21.70
2019,03,20,14,25,21.60
2019,03,20,14,26,21.40
2019,03,20,14,27,21.30
2019,03,20,14,28,21.30
2019,03,20,14,29,21.20
2019,03,20,14,30,21.20
2019,03,20,14,31,21.40
2019,03,20,14,32,21.50
2019,03,20,14,33,21.60
2019,03,20,14,34,21.60
2019,03,20,14,35,21.70
2019,03,20,14,36,21.70
2019,03,20,14,37,21.80
2019,03,20,14,38,21.80
2019,03,20,14,39,21.80
2019,03,20,14,40,21.80
2019,03,20,14,41,21.80
2019,03,20,14,42,21.90
2019,03,20,14,43,21.90
2019,03,20,14,44,21.90
2019,03,20,14,45,21.90
2019,03,20,14,46,21.90
2019,03,20,14,47,21.90
2019,03,20,14,48,21.80
2019,03,20,14,49,21.90
2019,03,20,14,50,22.00
2019,03,20,14,51,22.10
2019,03,20,14,52,22.30
2019,03,20,14,53,22.40
2019,03,20,14,54,22.30
2019,03,20,14,55,22.40
2019,03,20,14,56,22.30
2019,03,20,14,57,22.30
2019,03,20,14,58,22.30
2019,03,20,14,59,22.30
2019,03,20,15,00,22.30
2019,03,20,15,01,22.20
2019,03,20,15,02,22.20
2019,03,20,15,03,22.20
2019,03,20,15,04,22.20
2019,03,20,15,05,22.20
2019,03,20,15,06,22.20
2019,03,20,15,07,22.30
2019,03,20,15,08,22.20
2019,03,20,15,09,22.20
2019,03,20,15,10,22.20
2019,03,20,15,11,22.20
2019,03,20,15,12,22.30
2019,03,20,15,13,22.30
2019,03,20,15,14,22.30
2019,03,20,15,15,22.20
2019,03,20,15,16,22.20
2019,03,20,15,17,22.20
2019,03,20,15,18,22.20
2019,03,20,15,19,22.30
2019,03,20,15,20,22.40
2019,03,20,15,21,22.40
2019,03,20,15,22,22.50
2019,03,20,15,23,22.50
2019,03,20,15,24,22.60
2019,03,20,15,25,22.60
2019,03,20,15,26,22.60
2019,03,20,15,27,22.60
2019,03,20,15,28,22.60
2019,03,20,15,29,22.60
2019,03,20,15,30,22.60
2019,03,20,15,31,22.60
2019,03,20,15,32,22.60
2019,03,20,15,33,22.60
2019,03,20,15,34,22.60
2019,03,20,15,35,22.70
2019,03,20,15,36,22.70
2019,03,20,15,37,22.70
2019,03,20,15,38,22.70
2019,03,20,15,39,22.70
2019,03,20,15,40,22.70
2019,03,20,15,41,22.70
2019,03,20,15,42,22.70
2019,03,20,15,43,22.80
2019,03,20,15,44,22.80
2019,03,20,15,45,22.90
2019,03,20,15,46,23.00
2019,03,20,15,47,23.20
2019,03,20,15,48,23.20
2019,03,20,15,49,23.20
2019,03,20,15,50,23.20
2019,03,20,15,51,23.20
2019,03,20,15,52,23.30
2019,03,20,15,53,23.30
2019,03,20,15,54,23.30
2019,03,20,15,55,23.20
2019,03,20,15,56,23.20
2019,03,20,15,57,23.10
2019,03,20,15,58,23.10
2019,03,20,15,59,22.90
2019,03,20,16,00,22.90
2019,03,20,16,01,22.90
2019,03,20,16,02,22.90
2019,03,20,16,03,23.00
2019,03,20,16,04,23.10
2019,03,20,16,05,23.30
2019,03,20,16,06,23.40
2019,03,20,16,07,23.40
2019,03,20,16,08,23.30
2019,03,20,16,09,23.30
2019,03,20,16,10,23.30
2019,03,20,16,11,23.20
2019,03,20,16,12,23.10
2019,03,20,16,13,23.10
2019,03,20,16,14,23.10
2019,03,20,16,15,23.00
2019,03,20,16,16,23.00
2019,03,20,16,17,22.90
2019,03,20,16,18,22.90
2019,03,20,16,19,23.00
2019,03,20,16,20,23.00
2019,03,20,16,21,23.10
2019,03,20,16,22,23.00
2019,03,20,16,23,23.00
2019,03,20,16,24,23.10
2019,03,20,16,25,23.10
2019,03,20,16,26,23.10
2019,03,20,16,27,23.10
2019,03,20,16,28,23.10
2019,03,20,16,29,23.00
2019,03,20,16,30,23.00
2019,03,20,16,31,23.00
2019,03,20,16,32,23.00
2019,03,20,16,33,23.10
2019,03,20,16,34,23.20
2019,03,20,16,35,23.20
2019,03,20,16,36,23.20
2019,03,20,16,37,23.20
2019,03,20,16,38,23.20
2019,03,20,16,39,23.20
2019,03,20,16,40,23.20
2019,03,20,16,41,23.30
2019,03,20,16,42,23.30
2019,03,20,16,43,23.40
2019,03,20,16,44,23.50
2019,03,20,16,45,23.50
2019,03,20,16,46,23.50
2019,03,20,16,47,23.50
2019,03,20,16,48,23.50
2019,03,20,16,49,23.50
2019,03,20,16,50,23.40
2019,03,20,16,51,23.30
2019,03,20,16,52,23.30
2019,03,20,16,53,23.30
2019,03,20,16,54,23.30
2019,03,20,16,55,23.20
2019,03,20,16,56,23.20
2019,03,20,16,57,23.20
2019,03,20,16,58,23.20
2019,03,20,16,59,23.20
2019,03,20,17,00,23.20
2019,03,20,17,01,23.10
2019,03,20,17,02,22.90
2019,03,20,17,03,22.70
2019,03,20,17,04,22.60
2019,03,20,17,05,22.50
2019,03,20,17,06,22.50
2019,03,20,17,07,22.40
2019,03,20,17,08,22.50
2019,03,20,17,09,22.50
2019,03,20,17,10,22.50
2019,03,20,17,11,22.50
2019,03,20,17,12,22.60
2019,03,20,17,13,22.80
2019,03,20,17,14,22.90
2019,03,20,17,15,23.00
2019,03,20,17,16,23.10
2019,03,20,17,17,23.20
2019,03,20,17,18,23.30
2019,03,20,17,19,23.30